Location: Unspecified
(31.4619°N, 0.0000°E)
Time: 16:46:55
(UTC+00:00)

CZ-6A DEB - Visible Passes

Search period start: 04 April 2026 00:00
Search period end: 14 April 2026 00:00
Orbit: 727 x 821 km, 89.0° (Epoch: 29 March)

Date Brightness Start Highest point End Pass type
(mag) Time Alt. Az. Time Alt. Az. Time Alt. Az.
4 Apr ? 05:19:16 10° SSE 05:24:11 44° E 05:29:16 10° NNE visible
5 Apr ? 04:45:56 10° SE 04:49:54 22° E 04:53:54 10° NNE visible
5 Apr ? 18:41:23 10° NW 18:45:08 20° WNW 18:48:49 10° WSW visible
6 Apr ? 04:15:07 10° E 04:15:43 10° ENE 04:16:20 10° ENE visible
7 Apr ? 05:15:38 10° SSE 05:20:46 57° E 05:26:03 10° N visible
8 Apr ? 04:42:00 10° SE 04:46:25 28° E 04:50:55 10° NNE visible
9 Apr ? 04:09:40 10° ESE 04:12:12 14° ENE 04:14:45 10° NE visible
10 Apr ? 05:12:04 10° S 05:17:20 73° E 05:22:45 10° N visible
11 Apr ? 04:38:09 10° SSE 04:42:56 35° E 04:47:48 10° NNE visible
12 Apr ? 04:05:14 10° ESE 04:08:39 17° ENE 04:12:06 10° NE visible
